Location: Waltman Observatory
(32.5145°N, 90.4450°W)
Time: 10:22:46
(UTC-05:00)

Amateur Radio Satellites - All Passes

Search period start: 23 October 2017 09:52
Search period end: 24 October 2017 09:52
Location: Waltman Observatory, 32.5145°N, 90.4450°W

Satellite Date Start Highest point End Downlink Frequencies (MHz)
Time Altitude Azimuth
RS-15 23 Oct 10:00:11 10:12:03 77° 61° (ENE) 10:23:13 29.354- 29.394
EO-88 23 Oct 10:01:48 10:03:23 12° 94° (E) 10:04:59 145.990 - 145.960
AO-73 23 Oct 10:04:09 10:07:47 28° 288° (WNW) 10:11:22 145.935
DELFI C3 23 Oct 10:04:51 10:08:27 32° 98° (E) 10:12:02 145.870
Max Valier Satellite 23 Oct 10:17:44 10:21:00 31° 98° (E) 10:24:16 145.860
ZACube-1 23 Oct 10:29:41 10:31:42 13° 293° (WNW) 10:33:42 437.345
NO-84 23 Oct 10:38:54 10:42:36 69° 231° (SW) 10:45:58 435.350 FM
AIST 2D 23 Oct 10:39:28 10:40:53 12° 70° (ENE) 10:42:17 435.315
YUBILEINY 23 Oct 10:48:45 10:56:26 35° 284° (WNW) 11:04:12 435.215
UNISAT 6 23 Oct 11:08:51 11:12:22 21° 265° (W) 11:15:56 437.425
PRISM 23 Oct 11:11:46 11:15:33 39° 261° (W) 11:19:23 437.425
SRMSAT 23 Oct 11:13:26 11:17:47 21° 187° (S) 11:22:08 437.500
BEESAT 2 23 Oct 11:21:35 11:24:28 19° 110° (ESE) 11:27:23 435.950
TIGRISAT 23 Oct 11:23:25 11:26:18 16° 266° (W) 11:29:14 435.000
AO-85 23 Oct 11:23:44 11:24:35 11° 108° (ESE) 11:25:25 145.980
EO-79 23 Oct 11:24:13 11:27:14 19° 70° (ENE) 11:30:16 145.935-145.965
BEESAT 3 23 Oct 11:29:02 11:33:01 78° 299° (WNW) 11:37:02 437.485
POLYITAN 1 23 Oct 11:29:36 11:32:54 22° 70° (ENE) 11:36:14 437.675
EO-88 23 Oct 11:33:55 11:37:02 28° 287° (WNW) 11:40:09 145.990 - 145.960
DELFI C3 23 Oct 11:40:45 11:42:52 14° 291° (WNW) 11:44:58 145.870
NANOSAT C BR1 23 Oct 11:49:14 11:53:03 33° 73° (ENE) 11:56:53 145.865
QB50P2 23 Oct 11:49:18 11:53:21 43° 74° (ENE) 11:57:24 145.880/145.840
Max Valier Satellite 23 Oct 11:53:04 11:54:28 12° 291° (WNW) 11:55:54 145.860
ESTCUBE 1 23 Oct 11:54:41 11:58:39 31° 98° (E) 12:02:37 437.505/2401.250
DUCHIFAT 1 23 Oct 11:57:55 12:01:49 36° 73° (ENE) 12:05:43 145.980
AIST 2D 23 Oct 12:10:42 12:13:44 27° 263° (W) 12:16:47 435.315
LO-87 23 Oct 12:12:02 12:15:40 88° 99° (E) 12:19:16 145.935 - 145.965
RS-15 23 Oct 12:14:51 12:23:02 23° 259° (W) 12:31:00 29.354- 29.394
Gurwin Techsat 1B 23 Oct 12:56:38 12:59:46 16° 66° (ENE) 13:02:55 435.225
BEESAT 2 23 Oct 12:58:35 13:01:59 26° 304° (NW) 13:05:26 435.950
EO-79 23 Oct 12:59:06 13:02:45 28° 263° (W) 13:06:26 145.935-145.965
AO-85 23 Oct 13:00:49 13:04:29 40° 302° (WNW) 13:08:12 145.980
SRMSAT 23 Oct 13:03:56 13:06:17 12° 197° (SSW) 13:08:39 437.500
POLYITAN 1 23 Oct 13:05:03 13:08:31 24° 264° (W) 13:12:00 437.675
VELOX 1 23 Oct 13:05:38 13:09:33 30° 98° (E) 13:13:25 145.980
NANOSAT C BR1 23 Oct 13:26:14 13:28:47 15° 266° (W) 13:31:20 145.865
BUGSAT 1 23 Oct 13:26:53 13:31:04 77° 259° (W) 13:35:17 437.445
QB50P2 23 Oct 13:27:38 13:29:16 12° 267° (W) 13:30:56 145.880/145.840
SPROUT 23 Oct 13:29:58 13:34:17 85° 280° (W) 13:38:32 437.525
ESTCUBE 1 23 Oct 13:32:02 13:35:11 19° 291° (WNW) 13:38:21 437.505/2401.250
Oscar 19 23 Oct 13:34:50 13:39:53 58° 74° (ENE) 13:44:56 437.125/150
DUCHIFAT 1 23 Oct 13:35:18 13:37:33 14° 266° (W) 13:39:46 145.980
50 SAT 23 Oct 13:38:19 13:40:12 14° 95° (E) 13:42:04 437.505
M-CUBED/EXP-1 PRIME 23 Oct 13:57:35 14:00:59 75° 254° (WSW) 14:04:16 437.505
AO-7 23 Oct 14:00:10 14:05:10 18° 56° (NE) 14:10:09 .
DX 1 23 Oct 14:00:53 14:04:40 28° 98° (E) 14:08:25 434.975-435.025
UKube-1 23 Oct 14:17:38 14:21:17 26° 97° (E) 14:24:55 .
Gurwin Techsat 1B 23 Oct 14:34:04 14:39:13 53° 260° (W) 14:44:25 435.225
SO-50 23 Oct 14:34:47 14:37:53 17° 51° (NE) 14:41:00 436.795
VELOX 1 23 Oct 14:42:33 14:45:44 20° 291° (WNW) 14:48:55 145.980
50 SAT 23 Oct 15:09:56 15:12:22 20° 288° (WNW) 15:14:50 437.505
ITUPSAT 1 23 Oct 15:12:29 15:14:23 12° 93° (E) 15:16:16 437.325
Oscar 19 23 Oct 15:17:15 15:19:28 13° 267° (W) 15:21:41 437.125/150
BEESAT 23 Oct 15:24:23 15:27:36 18° 95° (E) 15:30:47 436.000
ISS 23 Oct 15:26:46 15:28:59 17° 34° (NE) 15:31:13 437.550
DX 1 23 Oct 15:37:25 15:40:37 20° 291° (WNW) 15:43:49 434.975-435.025
MOZHAYETS 4 23 Oct 15:44:45 15:48:57 35° 98° (E) 15:53:06
AO-7 23 Oct 15:48:32 15:56:50 87° 251° (WSW) 16:05:11 .
UKube-1 23 Oct 15:53:53 15:57:06 21° 290° (WNW) 16:00:18 .
ITAMSAT 1 23 Oct 15:54:11 15:59:21 77° 76° (ENE) 16:04:34 435.822/435.867
CUBESAT XI-V 23 Oct 16:07:35 16:09:13 12° 93° (E) 16:10:52 437.345
SO-50 23 Oct 16:14:06 16:18:31 45° 246° (WSW) 16:22:59 436.795
nSIGHT-1 23 Oct 16:20:17 16:23:28 72° 44° (NE) 16:26:40 .
ITUPSAT 1 23 Oct 16:47:47 16:52:26 52° 286° (WNW) 16:57:03 437.325
DOVE 4 23 Oct 16:52:50 16:56:25 28° 71° (ENE) 17:00:07 437.250
BEESAT 23 Oct 17:01:02 17:05:24 36° 288° (WNW) 17:09:45 436.000
ISS 23 Oct 17:02:29 17:05:34 38° 229° (SW) 17:08:38 437.550
PCSat 23 Oct 17:05:11 17:10:22 43° 61° (ENE) 17:15:28 145.827
MOZHAYETS 4 23 Oct 17:22:48 17:25:46 17° 292° (WNW) 17:28:43
XW-2C 23 Oct 17:31:41 17:33:49 15° 70° (ENE) 17:35:58 145.795 - 145.815
CUBESAT XI-V 23 Oct 17:42:20 17:46:48 50° 285° (WNW) 17:51:15 437.345
HO-68 23 Oct 17:44:16 17:47:34 14° 58° (ENE) 17:50:52 435.675
AO-7 23 Oct 17:46:54 17:50:24 13° 267° (W) 17:53:56 .
KAITUO 1B 23 Oct 18:03:52 18:07:01 27° 73° (ENE) 18:10:11 145.475/437.950
XW-2F 23 Oct 18:11:33 18:15:10 46° 76° (ENE) 18:18:48 145.980 - 146.000
NUDT-PHONESAT 23 Oct 18:11:37 18:14:57 32° 74° (ENE) 18:18:17 437.300
KKS-1 23 Oct 18:21:53 18:26:21 71° 285° (WNW) 18:30:49 437.445
LilacSat-2 23 Oct 18:24:29 18:28:18 86° 82° (E) 18:32:07 437.200
XW-2D 23 Oct 18:26:46 18:30:34 88° 77° (ENE) 18:34:22 145.860 - 145.880
CUTE-I 23 Oct 18:29:09 18:34:25 70° 75° (ENE) 18:39:43 437.470
DOVE 4 23 Oct 18:31:18 18:34:07 17° 266° (W) 18:37:01 437.250
XW-2B 23 Oct 18:40:24 18:44:09 61° 259° (W) 18:47:55 145.730 - 145.750
STARS 23 Oct 18:44:06 18:48:33 77° 103° (ESE) 18:52:57 437.465
PCSat 23 Oct 18:49:32 18:53:22 20° 255° (WSW) 18:57:11 145.827
XW-2C 23 Oct 19:04:26 19:07:42 28° 262° (W) 19:11:00 145.795 - 145.815
YUBILEINY 23 Oct 19:09:24 19:14:11 15° 68° (ENE) 19:18:57 435.215
HO-68 23 Oct 19:27:04 19:34:15 88° 74° (ENE) 19:41:29 435.675
KAITUO 1B 23 Oct 19:38:58 19:40:59 14° 266° (W) 19:42:59 145.475/437.950
SEEDS 23 Oct 19:39:40 19:43:49 70° 76° (ENE) 19:47:57 437.485
CUTE 1.7 + AOD 2 23 Oct 19:39:53 19:44:05 66° 259° (W) 19:48:17 437.475
CUBEBUG 2 23 Oct 19:42:33 19:47:12 71° 76° (ENE) 19:51:56 437.445
ZACube-1 23 Oct 19:43:15 19:46:34 20° 70° (ENE) 19:49:54 437.345
NUDT-PHONESAT 23 Oct 19:47:35 19:48:51 11° 266° (W) 19:50:07 437.300
BEESAT 3 23 Oct 19:51:11 19:53:23 14° 51° (NE) 19:55:34 437.485
AAUSAT CUBESAT 2 23 Oct 19:52:25 19:56:13 38° 74° (ENE) 20:00:01 437.432
STRAND 1 23 Oct 20:02:16 20:07:10 43° 99° (E) 20:12:02 437.568
O/OREOS (USA 219) 23 Oct 20:10:26 20:14:59 87° 105° (ESE) 20:19:35 437.305
UWE-3 23 Oct 20:12:43 20:17:21 87° 75° (ENE) 20:22:03 435.000/436.395/437.385
Oscar 11 23 Oct 20:13:08 20:16:37 24° 71° (ENE) 20:20:07 .
CUTE-I 23 Oct 20:13:39 20:14:51 11° 268° (W) 20:16:03 437.470
XW-2A 23 Oct 20:19:41 20:23:01 53° 260° (W) 20:26:22 145.665 - 145.685
FO-29 23 Oct 20:49:36 20:55:45 28° 96° (E) 21:02:10 435.910
AO-73 23 Oct 20:53:30 20:58:03 70° 260° (W) 21:02:36 145.935
YUBILEINY 23 Oct 21:03:09 21:12:00 88° 268° (W) 21:20:51 435.215
ZACube-1 23 Oct 21:18:32 21:22:34 31° 263° (W) 21:26:39 437.345
BEESAT 2 23 Oct 21:19:41 21:23:29 39° 58° (ENE) 21:27:13 435.950
HO-68 23 Oct 21:19:59 21:22:38 12° 268° (W) 21:25:19 435.675
BEESAT 3 23 Oct 21:27:25 21:31:03 37° 247° (WSW) 21:34:38 437.485
AAUSAT CUBESAT 2 23 Oct 21:30:04 21:31:45 12° 267° (W) 21:33:27 437.432
AO-85 23 Oct 21:34:58 21:39:24 42° 59° (ENE) 21:44:09 145.980
STRAND 1 23 Oct 21:42:30 21:45:57 19° 293° (WNW) 21:49:25 437.568
TIGRISAT 23 Oct 21:43:52 21:45:10 11° 92° (E) 21:46:27 435.000
Oscar 11 23 Oct 21:49:16 21:52:38 22° 264° (W) 21:56:01 .
EO-88 23 Oct 22:06:08 22:09:41 52° 76° (ENE) 22:13:14 145.990 - 145.960
RS-15 23 Oct 22:10:50 22:16:51 15° 98° (E) 22:22:52 29.354- 29.394
DELFI C3 23 Oct 22:19:32 22:23:16 44° 261° (W) 22:27:01 145.870
Max Valier Satellite 23 Oct 22:24:49 22:28:28 53° 260° (W) 22:32:07 145.860
FO-29 23 Oct 22:33:50 22:40:46 51° 288° (WNW) 22:48:13 435.910
LO-87 23 Oct 22:44:22 22:46:40 16° 71° (ENE) 22:48:59 145.935 - 145.965
ESTCUBE 1 23 Oct 22:50:37 22:53:30 17° 68° (ENE) 22:56:23 437.505/2401.250
PRISM 23 Oct 22:57:10 23:00:59 35° 99° (E) 23:04:48 437.425
BEESAT 2 23 Oct 22:59:03 23:00:47 13° 252° (WSW) 23:02:32 435.950
YUBILEINY 23 Oct 23:03:48 23:07:26 13° 281° (WNW) 23:11:06 435.215
UNISAT 6 23 Oct 23:03:56 23:08:27 67° 284° (WNW) 23:12:50 437.425
AO-85 23 Oct 23:16:17 23:19:34 18° 250° (WSW) 23:22:59 145.980
TIGRISAT 23 Oct 23:17:43 23:22:06 50° 286° (WNW) 23:26:22 435.000
AIST 2D 23 Oct 23:39:45 23:42:40 25° 97° (E) 23:45:34 435.315
VELOX 1 23 Oct 23:59:30 00:02:04 15° 68° (ENE) 00:04:38 145.980
RS-15 24 Oct 00:15:10 00:27:22 80° 114° (ESE) 00:39:42 29.354- 29.394
LO-87 24 Oct 00:17:02 00:19:52 22° 264° (W) 00:22:43 145.935 - 145.965
SPROUT 24 Oct 00:18:28 00:22:24 38° 74° (ENE) 00:26:24 437.525
ESTCUBE 1 24 Oct 00:25:52 00:29:58 35° 262° (W) 00:34:05 437.505/2401.250
PRISM 24 Oct 00:33:40 00:35:54 14° 292° (WNW) 00:38:07 437.425
EO-79 24 Oct 00:47:26 00:51:40 64° 101° (ESE) 00:55:50 145.935-145.965
DX 1 24 Oct 00:53:16 00:55:33 14° 67° (ENE) 00:57:50 434.975-435.025
POLYITAN 1 24 Oct 00:53:19 00:57:35 77° 102° (ESE) 01:01:47 437.675
UKube-1 24 Oct 01:09:06 01:11:06 13° 67° (ENE) 01:13:05 .
NANOSAT C BR1 24 Oct 01:12:58 01:17:10 68° 285° (WNW) 01:21:20 145.865
BUGSAT 1 24 Oct 01:13:51 01:17:03 21° 96° (E) 01:20:13 437.445
AIST 2D 24 Oct 01:13:56 01:15:34 13° 290° (WNW) 01:17:11 435.315
QB50P2 24 Oct 01:14:02 01:18:10 51° 285° (WNW) 01:22:15 145.880/145.840
DUCHIFAT 1 24 Oct 01:21:24 01:25:35 62° 283° (WNW) 01:29:42 145.980
50 SAT 24 Oct 01:32:52 01:36:00 48° 75° (ENE) 01:39:09 437.505
VELOX 1 24 Oct 01:34:06 01:38:08 37° 261° (W) 01:42:13 145.980
NO-84 24 Oct 01:48:57 01:53:11 85° 311° (NW) 01:57:31 435.350 FM
Oscar 19 24 Oct 01:51:25 01:55:51 29° 97° (E) 02:00:15 437.125/150
SPROUT 24 Oct 01:56:14 01:58:23 14° 266° (W) 02:00:34 437.525
DX 1 24 Oct 02:27:17 02:31:20 39° 261° (W) 02:35:24 434.975-435.025
BEESAT 24 Oct 02:27:29 02:29:40 13° 66° (ENE) 02:31:52 436.000
RS-15 24 Oct 02:30:49 02:41:09 30° 316° (NW) 02:51:31 29.354- 29.394
MOZHAYETS 4 24 Oct 02:42:34 02:46:01 21° 70° (ENE) 02:49:28
UKube-1 24 Oct 02:42:37 02:46:40 42° 260° (W) 02:50:46 .
BUGSAT 1 24 Oct 02:48:56 02:52:17 24° 289° (WNW) 02:55:36 437.445
Gurwin Techsat 1B 24 Oct 02:54:43 03:00:05 90° 142° (SE) 03:05:24 435.225
JUGNU 24 Oct 03:06:46 03:08:06 11° 162° (SSE) 03:09:26 437.505
M-CUBED/EXP-1 PRIME 24 Oct 03:13:09 03:16:47 49° 288° (WNW) 03:20:40 437.505
NO-84 24 Oct 03:29:08 03:31:09 13° 327° (NNW) 03:33:10 435.350 FM
Oscar 19 24 Oct 03:30:49 03:34:59 26° 291° (WNW) 03:39:10 437.125/150
ITUPSAT 1 24 Oct 03:49:25 03:54:13 77° 257° (WSW) 03:59:03 437.325
AO-7 24 Oct 03:55:38 04:03:25 42° 101° (E) 04:11:09 .
BEESAT 24 Oct 04:02:15 04:06:55 54° 259° (W) 04:11:37 436.000
ITAMSAT 1 24 Oct 04:11:53 04:16:46 39° 99° (E) 04:21:38 435.822/435.867
MOZHAYETS 4 24 Oct 04:18:53 04:22:56 30° 263° (W) 04:27:00
CUBESAT XI-V 24 Oct 04:40:28 04:45:05 90° 132° (SE) 04:49:43 437.345
SO-50 24 Oct 04:45:56 04:48:06 13° 108° (ESE) 04:50:15 436.795
JUGNU 24 Oct 04:52:15 04:56:27 20° 171° (S) 05:00:38 437.505
DOVE 4 24 Oct 04:56:25 04:59:11 14° 93° (E) 05:01:58 437.250
RS-15 24 Oct 04:57:18 04:59:48 11° 350° (N) 05:02:18 29.354- 29.394
KKS-1 24 Oct 05:15:01 05:19:21 58° 75° (ENE) 05:23:43 437.445
STARS 24 Oct 05:36:03 05:40:03 37° 73° (ENE) 05:44:07 437.465
AO-7 24 Oct 05:48:34 05:55:56 37° 296° (WNW) 06:03:20 .
ITAMSAT 1 24 Oct 05:52:07 05:55:54 21° 293° (WNW) 05:59:40 435.822/435.867
LilacSat-2 24 Oct 06:03:54 06:05:30 12° 94° (E) 06:07:05 437.200
XW-2D 24 Oct 06:05:27 06:07:01 12° 94° (E) 06:08:34 145.860 - 145.880
XW-2B 24 Oct 06:18:08 06:20:42 18° 95° (E) 06:23:16 145.730 - 145.750
SO-50 24 Oct 06:23:48 06:28:06 46° 302° (WNW) 06:32:25 436.795
O/OREOS (USA 219) 24 Oct 06:25:03 06:29:40 77° 71° (ENE) 06:34:13 437.305
DOVE 4 24 Oct 06:32:00 06:37:01 55° 285° (WNW) 06:42:10 437.250
JUGNU 24 Oct 06:40:16 06:44:51 23° 181° (S) 06:49:27 437.505
XW-2C 24 Oct 06:40:51 06:44:20 37° 98° (E) 06:47:48 145.795 - 145.815
CUTE-I 24 Oct 06:50:59 06:56:03 41° 99° (E) 07:01:05 437.470
HO-68 24 Oct 07:01:14 07:06:31 22° 95° (E) 07:11:45 435.675
KAITUO 1B 24 Oct 07:12:21 07:16:02 75° 103° (ESE) 07:19:42 145.475/437.950
RS-15 24 Oct 07:12:59 07:20:10 17° 29° (NNE) 07:27:08 29.354- 29.394
STRAND 1 24 Oct 07:13:37 07:18:19 38° 72° (ENE) 07:23:04 437.568
STARS 24 Oct 07:13:57 07:16:28 15° 266° (W) 07:19:00 437.465
NUDT-PHONESAT 24 Oct 07:19:16 07:22:56 90° 71° (ENE) 07:26:35 437.300
nSIGHT-1 24 Oct 07:19:32 07:21:48 18° 128° (SE) 07:24:03 .
XW-2F 24 Oct 07:21:41 07:25:20 58° 284° (WNW) 07:28:59 145.980 - 146.000
SRMSAT 24 Oct 07:23:46 07:27:40 18° 169° (SSE) 07:31:33 437.500
SEEDS 24 Oct 07:29:02 07:31:37 16° 94° (E) 07:34:12 437.485
CUTE 1.7 + AOD 2 24 Oct 07:29:29 07:33:08 28° 97° (E) 07:36:46 437.475
LilacSat-2 24 Oct 07:36:28 07:39:48 31° 286° (WNW) 07:43:08 437.200
XW-2D 24 Oct 07:37:54 07:41:13 30° 286° (WNW) 07:44:31 145.860 - 145.880
CUBEBUG 2 24 Oct 07:39:02 07:42:28 21° 94° (E) 07:45:47 437.445
PCSat 24 Oct 07:41:44 07:47:08 81° 295° (WNW) 07:52:35 145.827
XW-2A 24 Oct 07:47:35 07:48:33 11° 94° (E) 07:49:29 145.665 - 145.685
XW-2B 24 Oct 07:51:52 07:54:46 22° 288° (WNW) 07:57:40 145.730 - 145.750
ISS 24 Oct 08:02:28 08:05:38 52° 133° (SE) 08:08:48 437.550
YUBILEINY 24 Oct 08:04:49 08:10:43 21° 82° (E) 08:16:38 435.215
UWE-3 24 Oct 08:07:47 08:11:21 24° 96° (E) 08:14:50 435.000/436.395/437.385
XW-2C 24 Oct 08:17:13 08:18:07 11° 292° (WNW) 08:19:00 145.795 - 145.815
NO-84 24 Oct 08:29:07 08:29:31 10° 30° (NNE) 08:29:56 435.350 FM
JUGNU 24 Oct 08:29:21 08:33:15 18° 191° (S) 08:37:09 437.505
CUTE-I 24 Oct 08:31:50 08:35:44 21° 293° (WNW) 08:39:38 437.470
FO-29 24 Oct 08:42:17 08:47:11 42° 71° (ENE) 08:52:26 435.910
AO-73 24 Oct 08:46:33 08:50:18 30° 97° (E) 08:53:59 145.935
HO-68 24 Oct 08:47:29 08:54:31 58° 289° (WNW) 09:01:30 435.675
STRAND 1 24 Oct 08:53:54 08:57:34 20° 265° (W) 09:01:15 437.568
nSIGHT-1 24 Oct 08:55:05 08:57:53 28° 321° (NW) 09:00:43 .
SEEDS 24 Oct 09:03:38 09:07:18 30° 287° (WNW) 09:10:58 437.485
CUTE 1.7 + AOD 2 24 Oct 09:05:52 09:08:42 18° 290° (WNW) 09:11:34 437.475
ZACube-1 24 Oct 09:10:57 09:15:14 73° 101° (E) 09:19:25 437.345
SRMSAT 24 Oct 09:11:37 09:16:13 24° 179° (S) 09:20:49 437.500
AAUSAT CUBESAT 2 24 Oct 09:13:43 09:17:46 57° 284° (WNW) 09:21:50 437.432
CUBEBUG 2 24 Oct 09:15:11 09:19:00 27° 289° (WNW) 09:22:43 437.445
XW-2A 24 Oct 09:18:27 09:21:15 25° 286° (WNW) 09:24:01 145.665 - 145.685
RS-15 24 Oct 09:24:12 09:35:53 60° 57° (ENE) 09:46:53 29.354- 29.394
PCSat 24 Oct 09:31:16 09:31:20 10° 312° (NW) 09:31:24 145.827
Oscar 11 24 Oct 09:39:45 09:44:03 86° 284° (WNW) 09:48:21 .
ISS 24 Oct 09:40:30 09:42:19 14° 328° (NNW) 09:44:07 437.550
PRISM 24 Oct 09:43:21 09:45:26 14° 68° (ENE) 09:47:32 437.425
UWE-3 24 Oct 09:44:13 09:47:38 22° 290° (WNW) 09:50:58 435.000/436.395/437.385
